TimePDT,TemperatureF,Dew PointF,Humidity,Sea Level PressureIn,VisibilityMPH,Wind Direction,Wind SpeedMPH,Gust SpeedMPH,PrecipitationIn,Events,Conditions,WindDirDegrees,DateUTC
12:15 AM,66.2,44.6,46,30.03,10.0,Calm,Calm,-,N/A,,Clear,0,2012-09-20 07:15:00
12:35 AM,66.2,42.8,43,30.03,10.0,Calm,Calm,-,N/A,,Clear,0,2012-09-20 07:35:00
12:55 AM,68.0,42.8,40,30.03,10.0,Calm,Calm,-,N/A,,Clear,0,2012-09-20 07:55:00
1:15 AM,66.2,42.8,43,30.03,10.0,Calm,Calm,-,N/A,,Clear,0,2012-09-20 08:15:00
1:35 AM,68.0,42.8,40,30.03,10.0,Calm,Calm,-,N/A,,Clear,0,2012-09-20 08:35:00
1:55 AM,66.2,42.8,43,30.04,10.0,Calm,Calm,-,N/A,,Clear,0,2012-09-20 08:55:00
2:15 AM,66.2,42.8,43,30.04,10.0,Calm,Calm,-,N/A,,Clear,0,2012-09-20 09:15:00
2:35 AM,68.0,42.8,40,30.04,10.0,Calm,Calm,-,N/A,,Clear,0,2012-09-20 09:35:00
3:15 AM,66.2,42.8,43,30.03,10.0,East,5.8,-,N/A,,Clear,90,2012-09-20 10:15:00
3:35 AM,66.2,42.8,43,30.03,10.0,East,3.5,-,N/A,,Clear,90,2012-09-20 10:35:00
3:55 AM,68.0,41.0,37,30.03,10.0,East,3.5,-,N/A,,Clear,90,2012-09-20 10:55:00
4:15 AM,68.0,41.0,37,30.03,10.0,Calm,Calm,-,N/A,,Clear,0,2012-09-20 11:15:00
4:35 AM,66.2,41.0,40,30.03,10.0,Calm,Calm,-,N/A,,Clear,0,2012-09-20 11:35:00
4:55 AM,64.4,41.0,42,30.03,10.0,East,3.5,-,N/A,,Clear,90,2012-09-20 11:55:00
5:15 AM,64.4,41.0,42,30.03,10.0,Calm,Calm,-,N/A,,Clear,0,2012-09-20 12:15:00
5:35 AM,62.6,41.0,45,30.03,10.0,Calm,Calm,-,N/A,,Clear,0,2012-09-20 12:35:00
5:55 AM,62.6,39.2,42,30.03,10.0,Calm,Calm,-,N/A,,Clear,0,2012-09-20 12:55:00
6:15 AM,62.6,41.0,45,30.03,10.0,Calm,Calm,-,N/A,,Clear,0,2012-09-20 13:15:00
6:35 AM,62.6,41.0,45,30.03,10.0,Calm,Calm,-,N/A,,Clear,0,2012-09-20 13:35:00
6:55 AM,62.6,41.0,45,30.03,10.0,Calm,Calm,-,N/A,,Clear,0,2012-09-20 13:55:00
7:15 AM,60.8,39.2,45,30.03,10.0,Calm,Calm,-,N/A,,Clear,0,2012-09-20 14:15:00
7:35 AM,62.6,39.2,42,30.03,10.0,Calm,Calm,-,N/A,,Clear,0,2012-09-20 14:35:00
8:15 AM,71.6,41.0,33,30.03,10.0,Calm,Calm,-,N/A,,Clear,0,2012-09-20 15:15:00
8:35 AM,73.4,41.0,31,30.03,10.0,Calm,Calm,-,N/A,,Clear,0,2012-09-20 15:35:00
8:55 AM,75.2,41.0,29,30.04,10.0,Calm,Calm,-,N/A,,Clear,0,2012-09-20 15:55:00
9:15 AM,77.0,42.8,29,30.04,10.0,Calm,Calm,-,N/A,,Clear,0,2012-09-20 16:15:00
9:35 AM,78.8,44.6,30,30.04,10.0,Calm,Calm,-,N/A,,Clear,0,2012-09-20 16:35:00
9:55 AM,78.8,44.6,30,30.04,10.0,Calm,Calm,-,N/A,,Clear,0,2012-09-20 16:55:00
10:15 AM,78.8,46.4,32,30.05,10.0,Calm,Calm,-,N/A,,Clear,0,2012-09-20 17:15:00
10:35 AM,77.0,44.6,32,30.05,10.0,WSW,5.8,-,N/A,,Clear,240,2012-09-20 17:35:00
10:55 AM,75.2,46.4,36,30.05,10.0,West,5.8,-,N/A,,Clear,280,2012-09-20 17:55:00
11:15 AM,77.0,46.4,34,30.06,10.0,Calm,Calm,-,N/A,,Clear,0,2012-09-20 18:15:00
11:35 AM,78.8,48.2,34,30.05,10.0,West,3.5,-,N/A,,Clear,270,2012-09-20 18:35:00
11:55 AM,78.8,46.4,32,30.05,10.0,Calm,Calm,-,N/A,,Clear,0,2012-09-20 18:55:00
12:15 PM,80.6,46.4,30,30.05,10.0,West,4.6,-,N/A,,Clear,260,2012-09-20 19:15:00
12:35 PM,80.6,46.4,30,30.04,10.0,WSW,3.5,-,N/A,,Clear,250,2012-09-20 19:35:00
12:55 PM,82.4,48.2,30,30.04,10.0,WSW,8.1,-,N/A,,Clear,250,2012-09-20 19:55:00
1:15 PM,80.6,48.2,32,30.04,10.0,WSW,8.1,-,N/A,,Clear,250,2012-09-20 20:15:00
1:35 PM,82.4,48.2,30,30.03,10.0,West,5.8,-,N/A,,Clear,280,2012-09-20 20:35:00
1:55 PM,82.4,48.2,30,30.03,10.0,West,5.8,-,N/A,,Clear,260,2012-09-20 20:55:00
2:15 PM,84.2,46.4,27,30.02,10.0,WNW,5.8,-,N/A,,Clear,290,2012-09-20 21:15:00
2:35 PM,84.2,48.2,29,30.02,10.0,WSW,6.9,-,N/A,,Clear,240,2012-09-20 21:35:00
3:15 PM,84.2,48.2,29,30.01,10.0,West,4.6,-,N/A,,Clear,260,2012-09-20 22:15:00
3:35 PM,84.2,48.2,29,30.01,10.0,Calm,Calm,-,N/A,,Clear,0,2012-09-20 22:35:00
3:55 PM,86.0,46.4,25,30.00,10.0,Calm,Calm,-,N/A,,Clear,0,2012-09-20 22:55:00
4:15 PM,87.8,44.6,22,30.00,10.0,NW,3.5,-,N/A,,Clear,310,2012-09-20 23:15:00
4:35 PM,87.8,44.6,22,29.99,10.0,West,3.5,-,N/A,,Clear,280,2012-09-20 23:35:00
4:55 PM,87.8,44.6,22,29.99,10.0,West,6.9,-,N/A,,Clear,260,2012-09-20 23:55:00
5:15 PM,86.0,42.8,22,29.99,10.0,WNW,5.8,-,N/A,,Clear,290,2012-09-21 00:15:00
5:35 PM,86.0,46.4,25,29.98,10.0,West,5.8,-,N/A,,Clear,260,2012-09-21 00:35:00
5:55 PM,84.2,46.4,27,29.98,10.0,West,5.8,-,N/A,,Clear,260,2012-09-21 00:55:00
6:15 PM,82.4,46.4,28,29.98,10.0,West,5.8,-,N/A,,Clear,260,2012-09-21 01:15:00
6:35 PM,82.4,46.4,28,29.99,10.0,Calm,Calm,-,N/A,,Clear,0,2012-09-21 01:35:00
6:55 PM,80.6,46.4,30,29.98,10.0,Calm,Calm,-,N/A,,Clear,0,2012-09-21 01:55:00
7:15 PM,75.2,46.4,36,29.98,10.0,Calm,Calm,-,N/A,,Clear,0,2012-09-21 02:15:00
7:35 PM,71.6,44.6,38,29.98,10.0,Calm,Calm,-,N/A,,Clear,0,2012-09-21 02:35:00
7:55 PM,69.8,44.6,40,29.98,10.0,Calm,Calm,-,N/A,,Clear,0,2012-09-21 02:55:00
8:15 PM,69.8,44.6,40,29.98,10.0,Calm,Calm,-,N/A,,Clear,0,2012-09-21 03:15:00
8:35 PM,69.8,44.6,40,29.99,10.0,Calm,Calm,-,N/A,,Clear,0,2012-09-21 03:35:00
8:55 PM,69.8,46.4,43,29.99,10.0,Calm,Calm,-,N/A,,Clear,0,2012-09-21 03:55:00
9:55 PM,73.4,46.4,38,29.99,10.0,East,5.8,-,N/A,,Clear,90,2012-09-21 04:55:00
10:15 PM,71.6,44.6,38,29.99,10.0,Calm,Calm,-,N/A,,Clear,0,2012-09-21 05:15:00
10:35 PM,69.8,46.4,43,29.99,10.0,Calm,Calm,-,N/A,,Clear,0,2012-09-21 05:35:00
10:55 PM,66.2,44.6,46,29.99,10.0,Calm,Calm,-,N/A,,Clear,0,2012-09-21 05:55:00
11:15 PM,62.6,44.6,52,29.99,10.0,Calm,Calm,-,N/A,,Clear,0,2012-09-21 06:15:00
11:35 PM,66.2,44.6,46,29.99,10.0,Calm,Calm,-,N/A,,Clear,0,2012-09-21 06:35:00
11:55 PM,69.8,44.6,40,29.99,10.0,East,6.9,-,N/A,,Clear,100,2012-09-21 06:55:00